Volver al catálogo

DELTA 1 DEB

ActivoPO
NORAD 12263·DEBRIS·🇺🇸 United States

Lanzado Mar 5, 1978 desde Vandenberg Space Force Base

Loading…

Próximos Pases (próximas 24 horas)

TLE

ActualizadoSource: Space-Track

Época: Sep 14, 2026, 12:20 UTC

1 12263U 78026DG  26257.51415687  .00000413  00000-0  54560-3 0  9997
2 12263  98.9419   0.5810 0417530 138.7767 224.5697 13.34467615181699

Sigue DELTA 1 DEB en tiempo real con AllMySat

Download on the App Store